Location: Béaulencourt
(50.0796°N, 2.8795°E)
Time: 21:21:51
(UTC+00:00)

Cosmos 1140 Rocket - Pass Details

Date: 20 January 2026
Orbit: 739 x 763 km, 74.1° (Epoch: 16 February)

Event Time Altitude Azimuth Distance (km) Brightness Sun altitude
Exits shadow 04:49:55 25° 183° (S) 1,468 4.9 -26.3°
Maximum altitude 04:52:50 64° 109° (ESE) 825 3.8 -25.9°
Drops below altitude 10° 04:57:55 10° 29° (NNE) 2,274 6.2 -25.1°
Sets 05:00:18 0° 26° (NNE) 3,206 7.0 -24.7°
